Location: Alvis C Story Elementary School
(33.0968°N, 96.6364°W)
Time: 20:05:10
(UTC+00:00)

H-2A R/B (2) - Pass Details

Date: 27 June 2022
Orbit: 428 x 34396 km, 28.9° (Epoch: 07 August)

Event Time Altitude Azimuth Distance (km) Brightness Sun altitude
Exits shadow 08:49:48 - 195° (SSW) 18,407 8.4 -24.4°
Reaches altitude 10° 08:55:52 10° 193° (SSW) 19,479 8.6 -23.7°
Maximum altitude 17:31:07 72° 172° (S) 4,412 8.0 73.8°
Drops below altitude 10° 17:42:27 10° 89° (E) 3,947 6.0 75.7°
Sets 17:44:08 0° 87° (E) 4,404 6.0 76.0°
